Back to catalog

ARIANE 44LP DEB

LostHEO
NORAD 27661·DEBRIS·🇫🇷 France

Launched Mar 2, 1991 from Guiana Space Centre

Loading…

Next Passes (next 24 hours)

TLE

StaleSource: Space-Track

Epoch: Mar 24, 2025, 11:31 UTC

1 27661U 91015M   25083.48049146  .00000976  00000-0  16863-2 0  9990
2 27661   5.4124 151.6997 6709613  40.0308 353.7531  2.95097831240552

Track ARIANE 44LP DEB in real time with AllMySat

Download on the App Store